#timestamp,LO_Frequency,Hit,StdDev 
1508392815.2,286046995.6,N
1508392835.0,286046997.2,N
1508392835.9,286046997.2,N
1508392855.8,286046995.3,N
1508392875.6,286046995.3,N
1508392895.5,286046999.6,N
1508392915.3,286046996.6,N
1508392935.1,286046997.2,N
1508392955.9,286046996.7,N
1508392975.7,286046999.6,N
1508392995.5,286046999.0,N
1508393015.4,286046996.6,N
1508393035.2,286046999.2,N
1508393055.1,286046996.6,N
1508393056.0,286046996.6,N
1508393075.8,286046999.3,N
1508393095.6,286046997.0,N
1508393115.5,286046999.2,N
1508393135.3,286046997.2,N
1508393155.1,286046998.8,N
1508393175.9,286046996.9,N
1508393195.7,286046999.0,N
1508393215.6,286046997.1,N
1508393235.4,286046997.8,N
1508393255.2,286046996.7,N
1508393275.1,286046997.9,N
1508393276.0,286046997.9,N
1508393295.8,286046998.3,N
1508393315.6,286046999.1,N
1508393335.5,286046999.2,N
1508393355.3,286046996.8,N
1508393375.2,286046999.2,N
1508393395.9,286047001.2,N
1508393415.7,286047001.1,N
1508393435.6,286047002.5,N
1508393455.4,286046999.7,N
1508393475.2,286047002.6,N
1508393495.1,286047002.4,N
1508393496.0,286047002.4,N
1508393515.8,286047000.5,N
1508393535.7,286046999.7,N
1508393555.5,286046999.8,N
1508393575.3,286047002.4,N
1508393595.2,286047000.6,N
1508393615.9,286047000.5,N
1508393635.7,286047000.4,N
1508393655.6,286046998.5,N
1508393675.4,286047000.8,N
1508393695.3,286047001.1,N
1508393715.1,286047000.9,N
1508393716.0,286047000.9,N
1508393735.8,286046999.9,N
1508393755.7,286046999.8,N
1508393775.5,286047001.0,N
1508393795.3,286047000.9,N
1508393815.2,286047000.7,N
1508393835.0,286046998.9,N
1508393835.9,286046998.9,N
1508393855.8,286046998.2,N
1508393875.6,286047000.8,N
1508393895.4,286046999.2,N
1508393915.3,286046999.3,N
1508393935.1,286046997.8,N
1508393936.0,286046997.8,N
1508393955.8,286046997.3,N
1508393975.7,286046996.7,N
1508393995.5,286046995.0,Y
1508394015.4,286046994.9,P
1508394035.2,286046997.4,N
1508394055.0,286046997.2,N
1508394055.9,286046997.2,N
1508394075.8,286046997.1,N
1508394095.6,286046996.5,N
1508394115.4,286046999.2,N
1508394135.3,286046996.5,N
1508394155.1,286046997.2,N
1508394175.8,286046999.4,N
1508394195.7,286046998.9,N
1508394215.5,286046998.6,N
1508394235.4,286047001.2,N
1508394255.2,286046998.5,N
1508394275.0,286046998.3,N
1508394275.9,286046998.3,N
1508394295.8,286047000.8,N
1508394315.6,286047001.0,N
1508394335.4,286047000.2,N
1508394355.3,286046999.7,N
1508394375.1,286047000.4,N
1508394395.9,286047002.5,N
1508394415.7,286047002.0,N
1508394435.5,286047002.0,N
1508394455.4,286047002.5,N
1508394475.2,286047000.2,N
1508394495.0,286047004.4,N
1508394495.9,286047004.4,N
1508394515.8,286047002.6,N
1508394535.6,286047002.9,N
1508394555.5,286047004.2,N
1508394575.3,286047002.6,N
1508394595.1,286047001.7,N
1508394615.9,286047002.1,N
1508394635.7,286047002.4,N
1508394655.5,286047001.4,N
1508394675.4,286047001.8,N
1508394695.2,286047003.6,N
1508394715.1,286047001.9,N
1508394716.0,286047001.9,N
1508394735.8,286047004.0,N
1508394755.6,286047002.2,N
1508394775.5,286047002.2,N
1508394795.3,286047002.2,N
1508394815.1,286047002.4,N
1508394835.9,286047000.4,N
1508394855.7,286047002.8,N
1508394875.6,286046999.9,N
1508394895.4,286047000.2,N
1508394915.2,286047002.0,N
1508394935.1,286047003.8,Y
1508394936.0,286047003.8,P
1508394955.8,286047000.2,N
1508394975.6,286047002.3,N
1508394995.5,286047001.7,N
1508395015.3,286047002.2,N
1508395035.2,286047001.5,N
1508395055.9,286047002.4,N
1508395075.7,286047001.5,N
1508395095.6,286047004.3,Y
1508395115.4,286047001.0,P
1508395135.2,286046998.2,P
1508395155.1,286047001.0,N
1508395156.0,286047001.0,N
1508395175.8,286047000.1,N
1508395195.7,286046999.7,N
1508395215.5,286047000.6,N
1508395235.3,286047000.7,N
1508395255.2,286046998.2,N
1508395275.0,286047000.9,N
1508395275.9,286047000.9,N
1508395295.7,286047001.2,N
1508395315.6,286046998.2,N
1508395335.4,286046998.4,N
1508395355.3,286047001.2,N
1508395375.1,286047000.8,N
1508395376.0,286047000.8,N
1508395395.8,286046998.3,N
1508395415.7,286046999.4,N
1508395435.5,286047000.4,N
1508395455.3,286047000.2,N
1508395475.2,286047002.5,N
1508395495.0,286047002.5,N
1508395495.9,286047002.5,N
1508395515.8,286047001.8,N
1508395535.6,286047001.8,N
1508395555.4,286047000.2,N
1508395575.3,286047002.5,N
1508395595.1,286047000.9,N
1508395615.8,286047000.9,N
1508395635.7,286046998.1,N
1508395655.5,286047000.4,N
1508395675.3,286046998.2,N
1508395695.2,286047000.5,N
1508395715.0,286047000.4,N
1508395715.9,286047000.4,N
1508395735.8,286047000.4,N
1508395755.6,286047000.2,N
1508395775.4,286046999.7,N
1508395795.3,286047002.7,N
1508395815.1,286047000.4,N
1508395835.9,286047002.1,N
1508395855.7,286046999.7,N
1508395875.5,286047002.3,N
1508395925.4,286047003.4,E
1508395935.3,286047002.2,N
1508395955.2,286046998.2,P
1508395975.9,286046998.5,N
1508395995.7,286047000.7,N
1508396015.6,286047001.2,N
1508396035.4,286046998.3,N
1508396055.2,286046998.2,N
1508396075.1,286047000.8,N
1508396076.0,286047000.8,N
1508396095.8,286047000.9,N
1508396115.7,286046996.6,N
1508396135.5,286046996.5,N
1508396155.3,286046996.7,N
1508396175.2,286046997.9,N
1508396195.9,286046997.7,N
1508396215.7,286046994.9,N
1508396235.6,286046995.4,N
1508396255.4,286046997.3,N
1508396275.2,286046997.1,N
1508396295.1,286046997.1,N
1508396296.0,286046997.1,N
1508396315.8,286046996.6,N
1508396335.7,286046996.9,N
1508396355.5,286046996.7,N
1508396375.3,286046997.3,N
1508396395.2,286046996.8,N
